This demonstration page uses our WeatherBlox Daily Observations layout. Learn more.

Left ArrowRight Arrow

Hourly Observations for May 25, 2018

Temp ( °F °C ) Dew Point ( °F °C ) Humidity (%) Winds ( mph kmh ) Pressure ( in mb ) Visibility ( mi km ) Precip ( " mm )
12:53 am 00:53 Partly Cloudy 66 18.9 47 8.3 50 50 S 7 11 29.94 1014 10 16 0.00 0.00
1:53 am 01:53 Cloudy 64 17.8 49 9.4 58 58 S 10 17 29.95 1014 10 16 0.00 0.00
2:53 am 02:53 Mostly Cloudy 62 16.7 49 9.4 62 62 SSW 5 7 29.95 1014 10 16 0.00 0.00
3:53 am 03:53 Cloudy 61 16.1 49 9.4 65 65 S 10 17 29.96 1015 10 16 0.00 0.00
4:53 am 04:53 Cloudy 60 15.6 49 9.4 67 67 S 10 17 29.96 1014 10 16 0.00 0.00
5:53 am 05:53 Mostly Cloudy 59 15 49 9.4 69 69 S 5 7 29.96 1015 10 16 0.00 0.00
6:53 am 06:53 Cloudy 59 15 49 9.4 69 69 SSE 10 17 29.98 1015 10 16 0.00 0.00
7:53 am 07:53 Cloudy 57 13.9 50 10 78 78 S 14 22 30.02 1017 10 16 0.00 0.00
8:36 am 08:36 Cloudy with Light Rain 55 12.8 52 11.1 90 90 S 9 15 30.06 1018 10 16 0.01 0.25
8:53 am 08:53 Cloudy with Light Rain 55 12.8 53 11.7 93 93 SSW 7 11 30.05 1018 10 16 0.03 0.76
9:17 am 09:17 Cloudy 55 12.8 53 11.7 93 93 SSW 12 19 30.06 1018 10 16 0.00 0.03
9:30 am 09:30 Cloudy with Light Rain 55 12.8 53 11.7 93 93 S 10 17 30.06 1018 9 14 0.01 0.25
9:53 am 09:53 Cloudy with Rain 55 12.8 53 11.7 93 93 SSW 7 11 30.06 1018 8 13 0.03 0.76
10:32 am 10:32 Cloudy with Light Rain 55 12.8 53 11.7 93 93 S 8 13 30.09 1019 10 16 0.06 1.52
10:53 am 10:53 Cloudy with Light Rain 55 12.8 53 11.7 93 93 SSE 8 13 30.07 1018 10 16 0.07 1.78
11:04 am 11:04 Cloudy with Light Rain 55 12.8 54 12.2 96 96 SE 8 13 30.09 1019 10 16 0.01 0.25
11:24 am 11:24 Cloudy with Light Rain 56 13.3 54 12.2 93 93 SSE 8 13 30.09 1019 10 16 0.03 0.76
11:53 am 11:53 Cloudy with Light Rain 56 13.3 54 12.2 93 93 S 12 19 30.08 1019 10 16 0.06 1.52
12:53 pm 12:53 Cloudy 56 13.3 54 12.2 93 93 SSE 12 19 30.09 1019 10 16 0.01 0.25
1:53 pm 13:53 Cloudy with Light Rain 56 13.3 54 12.2 93 93 S 12 19 30.09 1019 8 13 0.00 0.03
2:53 pm 14:53 Cloudy 57 13.9 54 12.2 90 90 S 13 20 30.09 1019 10 16 0.00 0.03
3:53 pm 15:53 Cloudy with Light Rain 57 13.9 53 11.7 87 87 S 8 13 30.08 1019 10 16 0.00 0.03
4:33 pm 16:33 Cloudy with Light Rain 57 13.9 54 12.2 90 90 SSE 10 17 30.09 1019 10 16 0.02 0.51
4:53 pm 16:53 Cloudy 56 13.3 54 12.2 93 93 SSE 8 13 30.07 1018 10 16 0.03 0.76
5:27 pm 17:27 Cloudy with Light Rain 56 13.3 54 12.2 93 93 S 6 9 30.09 1019 6 10 0.02 0.51
5:53 pm 17:53 Cloudy with Light Rain 56 13.3 54 12.2 93 93 S 6 9 30.07 1018 6 10 0.07 1.78
6:05 pm 18:05 Cloudy with Light Rain 56 13.3 54 12.2 93 93 S 3 6 30.09 1019 7 11 0.02 0.51
6:44 pm 18:44 Cloudy with Light Rain 56 13.3 54 12.2 93 93 Calm 30.06 1018 6 10 0.09 2.29
6:53 pm 18:53 Cloudy with Light Rain 56 13.3 54 12.2 93 93 S 3 6 30.06 1018 6 10 0.10 2.54
7:30 pm 19:30 Cloudy with Light Rain 56 13.3 55 12.8 97 97 SE 3 6 30.06 1018 6 10 0.07 1.78
7:50 pm 19:50 Cloudy with Light Rain 55 13 55 13 100 100 Calm 30.06 1018 6 10 0.10 2.54
7:53 pm 19:53 Cloudy with Light Rain 56 13.3 55 12.8 97 97 Calm 30.06 1018 6 10 0.11 2.79
8:53 pm 20:53 Cloudy with Light Rain 56 13.3 55 12.8 97 97 E 3 6 30.06 1018 9 14 0.05 1.27
9:53 pm 21:53 Cloudy 56 13.3 55 12.8 97 97 Calm 30.07 1018 10 16 0.03 0.76
10:53 pm 22:53 Cloudy 57 13.9 54 12.2 90 90 SE 3 6 30.07 1018 8 13 0.00 0.03
11:53 pm 23:53 Cloudy with Mist and Fog 56 13.3 54 12.2 93 93 Calm 30.06 1018 6 10 0.03 0.76

Powered by AerisWeather